Home   Weather   Pictou   Past weeks

Flag for Canada Past Weather in Pictou, Nova Scotia, Canada — Yesterday and Last 2 Weeks

Now
51 °F

Cool.


Feels Like: 49 °F
Forecast: 51 / 63 °F
Wind: 5 mph from Southwest

Location: Caribou Point

Current Time: Oct 1, 2016 at 12:15:52 AM

Latest Report: Sep 30, 2016 at 11:00 PM


Visibility: N/A

Pressure: 30.42 "Hg

Humidity: 82%

Dew Point: 45 °F

Location of PictouLocation

Past Weather in Pictou — Graph

°F

Pictou Temperature Yesterday

Maximum temperature yesterday: 59 °F (at 4:00 PM)
Minimum temperature yesterday: 49 °F (at 8:00 AM)
Average temperature yesterday: 55 °F

High & Low Weather Summary for the Past Weeks

 TemperatureHumidityPressure
High72 °F (Sep 17, 3:00 PM)100% (Sep 19, 3:00 AM)30.49 "Hg (Sep 19, 3:00 AM)
Low46 °F (Sep 16, 7:00 AM)46% (Sep 16, 6:00 PM)29.75 "Hg (Sep 25, 6:00 AM)
Average58 °F80%30.08 "Hg
* Reported Sep 15 11:00 PM — Sep 30 11:00 PM, Pictou, Weather by CustomWeather, © 2016

Note: Actual official high and low records may vary slightly from our data, if they occured in-between our weather recording intervals... More about our weather records

Advertising

Pictou Weather History for the Previous 24 Hours

Scroll right to see more
 ConditionsComfort  
Time TempWeatherWind HumidityBarometerVisibility
11:00 PM
Fri, Sep 30
51 °FCool.5 mph82%30.42 "HgN/A
10:00 PM51 °FCool.3 mph79%30.43 "HgN/A
9:00 PM52 °FCool.3 mph79%30.44 "HgN/A
8:00 PM53 °FCool.3 mph75%30.43 "HgN/A
7:00 PM56 °FCool.9 mph68%30.43 "HgN/A
6:00 PM58 °FCool.12 mph71%30.43 "HgN/A
5:00 PM59 °FCool.14 mph70%30.43 "HgN/A
4:00 PM59 °FCool.15 mph71%30.44 "HgN/A
3:00 PM59 °FCool.15 mph73%30.45 "HgN/A
2:00 PM58 °FCool.17 mph77%30.47 "HgN/A
1:00 PM57 °FCool.17 mph78%30.48 "HgN/A
12:00 PM58 °FCool.17 mph80%30.49 "HgN/A
11:00 AM57 °FCool.15 mph79%30.49 "HgN/A
10:00 AM56 °FCool.12 mph83%30.49 "HgN/A
9:00 AM53 °FCool.10 mph86%30.49 "HgN/A
8:00 AM49 °FCool.7 mph83%30.49 "HgN/A
7:00 AM53 °FCool.13 mph85%30.48 "HgN/A
6:00 AM53 °FCool.16 mph84%30.48 "HgN/A
5:00 AM53 °FCool.13 mph80%30.47 "HgN/A
4:00 AM53 °FCool.15 mph75%30.47 "HgN/A
3:00 AM53 °FCool.14 mph80%30.46 "HgN/A
2:00 AM53 °FCool.15 mph77%30.48 "HgN/A
1:00 AM52 °FCool.10 mph79%30.47 "HgN/A
12:00 AM52 °FCool.10 mph80%30.48 "HgN/A
Weather by CustomWeather, © 2016

See weather overviewHow to use our weather pages